Tracking 30109 objects as of 12-Dec-2024
HD Live streaming from Space Station
objects crossing your sky now

STARLINK-6335

Track STARLINK-6335 now!
10-day predictions
STARLINK-6335 is classified as:


NORAD ID: 56527
Int'l Code: 2023-065AA
Perigee: 565.3 km
Apogee: 567.2 km
Inclination: 43.0 °
Period: 95.8 minutes
Semi major axis: 6937 km
RCS: Unknown
Launch date: May 14, 2023
Source: United States (US)
Launch site: AIR FORCE EASTERN TEST RANGE (AFETR)
Your satellite tracking list
Your tracking list is empty




NASA's NSSDC Master Catalog

Two Line Element Set (TLE):
1 56527U 23065AA  24346.53493643  .00000671  00000-0  64740-4 0  9996
2 56527  43.0020 152.2115 0001327 271.3451  88.7239 15.02526099 87684
Source of the keplerian elements: AFSPC